McCook, NE

7:22 AM CDT on August 19, 2017 (GMT -0500)
McCook Municipal

Weather History for KMCK - June, 2013

Change the Weather History Date:

Saturday, June 15, 2013

  Actual Average Record
Temperature  
Mean Temperature 76 °F 70 °F  
Max Temperature 90 °F 84 °F 108 °F (1952)
Min Temperature 61 °F 56 °F 37 °F (1989)
Cooling Degree Days 10    
Growing Degree Days 26 (Base 50)    
Moisture  
Dew Point 58 °F    
Average Humidity 52    
Maximum Humidity 72    
Minimum Humidity 35    
Precipitation  
Precipitation 0.00 in 0.11 in 1.18 in (1982)
Month to date precipitation 0.23 1.70  
Year to date precipitation 5.12 9.64  
Sea Level Pressure  
Sea Level Pressure 29.85 in    
Wind  
Wind Speed 7 mph (NNE)    
Max Wind Speed 20 mph    
Max Gust Speed 22 mph    
Visibility 10 miles    
Events      
T = Trace of Precipitation, MM = Missing Value Source: NWS Daily Summary

Daily Weather History Graph

Daily Weather History Graph

Search for Another Location

Airport or City:

Trip Planner

Search our weather history database for the weather conditions in past years. The results will help you decide how hot, cold, wet, or windy it might be!

Date:

Astronomy

Jun. 15, 2013 Rise Set
Actual Time 6:12 AM CDT 9:13 PM CDT
Civil Twilight 5:39 AM CDT 9:46 PM CDT
Nautical Twilight 4:57 AM CDT 10:28 PM CDT
Astronomical Twilight 4:08 AM CDT 11:17 PM CDT
Moon 12:49 PM CDT (6/15) 12:49 AM CDT (6/15)
Length of Visible Light 16h 07m
Length of Day
15h 01m
Waxing Crescent, 40% of the Moon is Illuminated
Jun 15
Waxing Crescent
Jun 16
First Quarter
Jun 23
Full
Jun 29
Last Quarter
Jul 8
New

Hourly Weather History & Observations

Time (CDT) Temp. Heat Index Dew Point Humidity Pressure Visibility Wind Dir Wind Speed Gust Speed Precip Events Conditions
12:53 AM 75.9 °F - 48.0 °F 37% 29.80 in 10.0 mi Calm Calm - N/A   Clear
1:53 AM 70.0 °F - 53.1 °F 55% 29.81 in 10.0 mi NNW 5.8 mph - N/A   Clear
2:53 AM 70.0 °F - 52.0 °F 53% 29.81 in 10.0 mi Calm Calm - N/A   Clear
3:53 AM 66.0 °F - 51.1 °F 59% 29.83 in 10.0 mi SW 9.2 mph - N/A   Clear
4:53 AM 61.0 °F - 52.0 °F 72% 29.83 in 10.0 mi WNW 3.5 mph - N/A   Clear
5:53 AM 62.1 °F - 53.1 °F 72% 29.83 in 10.0 mi NNW 5.8 mph - N/A   Clear
6:53 AM 66.0 °F - 52.0 °F 60% 29.88 in 10.0 mi Calm Calm - N/A   Clear
7:53 AM 71.1 °F - 54.0 °F 55% 29.88 in 10.0 mi North 3.5 mph - N/A   Clear
8:53 AM 73.9 °F - 60.1 °F 62% 29.88 in 10.0 mi NE 16.1 mph - N/A   Clear
9:53 AM 77.0 °F - 61.0 °F 58% 29.88 in 10.0 mi East 15.0 mph - N/A   Clear
10:53 AM 79.0 °F - 61.0 °F 54% 29.87 in 10.0 mi ENE 15.0 mph - N/A   Clear
11:53 AM 81.0 °F 81.6 °F 60.1 °F 49% 29.87 in 10.0 mi ENE 12.7 mph 16.1 mph N/A   Clear
12:53 PM 82.9 °F 83.2 °F 60.1 °F 46% 29.86 in 10.0 mi Variable 6.9 mph - N/A   Clear
1:53 PM 86.0 °F 85.7 °F 60.1 °F 41% 29.86 in 10.0 mi Calm Calm - N/A   Clear
2:53 PM 89.1 °F 88.8 °F 60.1 °F 38% 29.84 in 10.0 mi NNE 12.7 mph 17.3 mph N/A   Clear
3:53 PM 89.1 °F 88.2 °F 59.0 °F 36% 29.83 in 10.0 mi North 10.4 mph 17.3 mph N/A   Partly Cloudy
4:53 PM 90.0 °F 89.1 °F 59.0 °F 35% 29.83 in 10.0 mi NNE 13.8 mph 20.7 mph N/A   Clear
5:53 PM 88.0 °F 87.1 °F 59.0 °F 37% 29.82 in 10.0 mi NNE 13.8 mph 21.9 mph N/A   Clear
6:53 PM 87.1 °F 86.1 °F 57.9 °F 37% 29.81 in 10.0 mi NE 10.4 mph - N/A   Clear
7:53 PM 82.0 °F 83.0 °F 62.1 °F 51% 29.84 in 10.0 mi NE 19.6 mph - N/A   Clear
8:53 PM 79.0 °F - 62.1 °F 56% 29.86 in 10.0 mi NE 15.0 mph - N/A   Clear
9:53 PM 77.0 °F - 62.1 °F 60% 29.91 in 10.0 mi NE 10.4 mph - N/A   Clear
10:53 PM 75.0 °F - 62.1 °F 64% 29.91 in 10.0 mi NE 12.7 mph - N/A   Clear
11:53 PM 73.9 °F - 61.0 °F 64% 29.93 in 10.0 mi ENE 11.5 mph - N/A   Clear